Location: Hoyos del Collado
(40.3594°N, 5.2003°W)
Time: 02:17:26
(UTC+00:00)

Cosmos 1782 Rocket - Pass Details

Date: 18 April 2024
Orbit: 604 x 628 km, 82.5° (Epoch: 25 May)

Event Time Altitude Azimuth Distance (km) Brightness Sun altitude
Rises 19:25:54 0° 182° (S) 2,862 6.8 -4.9°
Reaches altitude 10° 19:28:06 10° 181° (S) 1,966 6.0 -5.3°
Maximum altitude 19:32:27 77° 96° (E) 638 3.5 -6.1°
Drops below altitude 10° 19:36:52 10° 11° (N) 1,997 6.3 -6.9°
Sets 19:39:07 0° 10° (N) 2,912 7.2 -7.3°
